1588543240,2020-05-04 00:00,553.00,-33
1588543300,2020-05-04 00:01,555.00,-35
1588543360,2020-05-04 00:02,559.00,-34
1588543421,2020-05-04 00:03,556.00,-37
1588543481,2020-05-04 00:04,558.00,-30
1588543541,2020-05-04 00:05,559.00,-34
1588543601,2020-05-04 00:06,555.00,-32
1588543662,2020-05-04 00:07,555.00,-33
1588543722,2020-05-04 00:08,558.00,-36
1588543782,2020-05-04 00:09,561.00,-33
1588543842,2020-05-04 00:10,559.00,-29
1588543903,2020-05-04 00:11,558.00,-30
1588543963,2020-05-04 00:12,560.00,-30
1588544023,2020-05-04 00:13,557.00,-36
1588544083,2020-05-04 00:14,558.00,-31
1588544143,2020-05-04 00:15,555.00,-33
1588544204,2020-05-04 00:16,560.00,-31
1588544264,2020-05-04 00:17,556.00,-29
1588544324,2020-05-04 00:18,561.00,-31
1588544385,2020-05-04 00:19,560.00,-35
1588544445,2020-05-04 00:20,557.00,-34
1588544505,2020-05-04 00:21,557.00,-37
1588544565,2020-05-04 00:22,556.00,-34
1588544626,2020-05-04 00:23,558.00,-33
1588544686,2020-05-04 00:24,559.00,-36
1588544746,2020-05-04 00:25,561.00,-37
1588544807,2020-05-04 00:26,559.00,-35
1588544867,2020-05-04 00:27,561.00,-30
1588544927,2020-05-04 00:28,558.00,-35
1588544987,2020-05-04 00:29,558.00,-36
1588545048,2020-05-04 00:30,560.00,-33
1588545108,2020-05-04 00:31,557.00,-33
1588545168,2020-05-04 00:32,556.00,-31
1588545228,2020-05-04 00:33,557.00,-32
1588545289,2020-05-04 00:34,558.00,-37
1588545349,2020-05-04 00:35,559.00,-30
1588545409,2020-05-04 00:36,555.00,-33
1588545470,2020-05-04 00:37,561.00,-35
1588545530,2020-05-04 00:38,558.00,-34
1588545590,2020-05-04 00:39,557.00,-33
1588545650,2020-05-04 00:40,556.00,-34
1588545711,2020-05-04 00:41,560.00,-29
1588545771,2020-05-04 00:42,558.00,-29
1588545831,2020-05-04 00:43,556.00,-35
1588545891,2020-05-04 00:44,557.00,-30
1588545952,2020-05-04 00:45,552.00,-34
1588546012,2020-05-04 00:46,560.00,-32
1588546072,2020-05-04 00:47,557.00,-31
1588546133,2020-05-04 00:48,556.00,-38
1588546193,2020-05-04 00:49,558.00,-32
1588546253,2020-05-04 00:50,558.00,-34
1588546313,2020-05-04 00:51,558.00,-29
1588546374,2020-05-04 00:52,556.00,-30
1588546434,2020-05-04 00:53,558.00,-36
1588546494,2020-05-04 00:54,558.00,-27
1588546554,2020-05-04 00:55,558.00,-29
1588546615,2020-05-04 00:56,562.00,-30
1588546675,2020-05-04 00:57,562.00,-37
1588546735,2020-05-04 00:58,560.00,-36
1588546796,2020-05-04 00:59,562.00,-36
1588546856,2020-05-04 01:00,560.00,-32
1588546916,2020-05-04 01:01,559.00,-33
1588546976,2020-05-04 01:02,559.00,-36
1588547037,2020-05-04 01:03,560.00,-38
1588547097,2020-05-04 01:04,559.00,-33
1588547157,2020-05-04 01:05,557.00,-32
1588547217,2020-05-04 01:06,557.00,-32
1588547278,2020-05-04 01:07,557.00,-36
1588547338,2020-05-04 01:08,558.00,-31
1588547398,2020-05-04 01:09,558.00,-34
1588547459,2020-05-04 01:10,558.00,-30
1588547519,2020-05-04 01:11,559.00,-32
1588547579,2020-05-04 01:12,558.00,-31
1588547639,2020-05-04 01:13,565.00,-30
1588547700,2020-05-04 01:15,563.00,-36
1588547760,2020-05-04 01:16,571.00,-35
1588547820,2020-05-04 01:17,566.00,-31
1588547880,2020-05-04 01:18,563.00,-31
1588547941,2020-05-04 01:19,566.00,-30
1588548001,2020-05-04 01:20,567.00,-31
1588548061,2020-05-04 01:21,563.00,-32
1588548122,2020-05-04 01:22,561.00,-30
1588548182,2020-05-04 01:23,565.00,-29
1588548242,2020-05-04 01:24,565.00,-31
1588548302,2020-05-04 01:25,564.00,-33
1588548363,2020-05-04 01:26,561.00,-33
1588548423,2020-05-04 01:27,565.00,-31
1588548483,2020-05-04 01:28,564.00,-34
1588548544,2020-05-04 01:29,566.00,-30
1588548604,2020-05-04 01:30,567.00,-36
1588548664,2020-05-04 01:31,564.00,-32
1588548724,2020-05-04 01:32,562.00,-30
1588548785,2020-05-04 01:33,562.00,-31
1588548845,2020-05-04 01:34,568.00,-37
1588548905,2020-05-04 01:35,563.00,-35
1588548965,2020-05-04 01:36,562.00,-32
1588549026,2020-05-04 01:37,562.00,-33
1588549086,2020-05-04 01:38,563.00,-31
1588549146,2020-05-04 01:39,565.00,-37
1588549207,2020-05-04 01:40,567.00,-33
1588549267,2020-05-04 01:41,563.00,-32
1588549327,2020-05-04 01:42,563.00,-34
1588549387,2020-05-04 01:43,566.00,-31
1588549448,2020-05-04 01:44,565.00,-35
1588549508,2020-05-04 01:45,562.00,-34
1588549568,2020-05-04 01:46,561.00,-32
1588549628,2020-05-04 01:47,563.00,-32
1588549689,2020-05-04 01:48,562.00,-34
1588549749,2020-05-04 01:49,564.00,-31
1588549809,2020-05-04 01:50,565.00,-33
1588549870,2020-05-04 01:51,562.00,-34
1588549930,2020-05-04 01:52,561.00,-37
1588549990,2020-05-04 01:53,562.00,-28
1588550050,2020-05-04 01:54,565.00,-38
1588550111,2020-05-04 01:55,563.00,-35
1588550171,2020-05-04 01:56,565.00,-32
1588550231,2020-05-04 01:57,564.00,-31
1588550291,2020-05-04 01:58,563.00,-36
1588550352,2020-05-04 01:59,565.00,-31
1588550412,2020-05-04 02:00,565.00,-31
1588550472,2020-05-04 02:01,562.00,-35
1588550533,2020-05-04 02:02,564.00,-35
1588550593,2020-05-04 02:03,563.00,-35
1588550653,2020-05-04 02:04,564.00,-37
1588550713,2020-05-04 02:05,564.00,-37
1588550774,2020-05-04 02:06,565.00,-31
1588550834,2020-05-04 02:07,563.00,-34
1588550894,2020-05-04 02:08,564.00,-33
1588550955,2020-05-04 02:09,561.00,-33
1588551015,2020-05-04 02:10,563.00,-33
1588551075,2020-05-04 02:11,564.00,-31
1588551135,2020-05-04 02:12,562.00,-30
1588551196,2020-05-04 02:13,566.00,-41
1588551256,2020-05-04 02:14,565.00,-31
1588551316,2020-05-04 02:15,566.00,-34
1588551376,2020-05-04 02:16,564.00,-30
1588551437,2020-05-04 02:17,565.00,-33
1588551497,2020-05-04 02:18,563.00,-34
1588551557,2020-05-04 02:19,567.00,-39
1588551618,2020-05-04 02:20,565.00,-35
1588551678,2020-05-04 02:21,565.00,-33
1588551738,2020-05-04 02:22,564.00,-37
1588551798,2020-05-04 02:23,563.00,-37
1588551859,2020-05-04 02:24,564.00,-35
1588551919,2020-05-04 02:25,567.00,-36
1588551979,2020-05-04 02:26,564.00,-31
1588552039,2020-05-04 02:27,564.00,-34
1588552100,2020-05-04 02:28,566.00,-36
1588552160,2020-05-04 02:29,567.00,-31
1588552220,2020-05-04 02:30,563.00,-33
1588552280,2020-05-04 02:31,565.00,-39
1588552340,2020-05-04 02:32,564.00,-33
1588552400,2020-05-04 02:33,565.00,-32
1588552460,2020-05-04 02:34,566.00,-40
1588552520,2020-05-04 02:35,566.00,-37
1588552580,2020-05-04 02:36,565.00,-35
1588552640,2020-05-04 02:37,566.00,-33
1588552700,2020-05-04 02:38,567.00,-30
1588552760,2020-05-04 02:39,566.00,-39
1588552821,2020-05-04 02:40,567.00,-27
1588552881,2020-05-04 02:41,569.00,-36
1588552941,2020-05-04 02:42,565.00,-34
1588553001,2020-05-04 02:43,569.00,-35
1588553061,2020-05-04 02:44,566.00,-31
1588553121,2020-05-04 02:45,565.00,-36
1588553181,2020-05-04 02:46,565.00,-34
1588553241,2020-05-04 02:47,566.00,-32
1588553301,2020-05-04 02:48,568.00,-33
1588553361,2020-05-04 02:49,565.00,-33
1588553421,2020-05-04 02:50,565.00,-31
1588553482,2020-05-04 02:51,565.00,-39
1588553542,2020-05-04 02:52,566.00,-31
1588553602,2020-05-04 02:53,567.00,-37
1588553662,2020-05-04 02:54,570.00,-33
1588553722,2020-05-04 02:55,569.00,-37
1588553782,2020-05-04 02:56,566.00,-35
1588553842,2020-05-04 02:57,567.00,-40
1588553902,2020-05-04 02:58,568.00,-35
1588553962,2020-05-04 02:59,571.00,-38
1588554022,2020-05-04 03:00,565.00,-39
1588554082,2020-05-04 03:01,567.00,-38
1588554142,2020-05-04 03:02,565.00,-31
1588554203,2020-05-04 03:03,565.00,-35
1588554263,2020-05-04 03:04,567.00,-36
1588554323,2020-05-04 03:05,565.00,-31
1588554383,2020-05-04 03:06,566.00,-34
1588554443,2020-05-04 03:07,567.00,-33
1588554503,2020-05-04 03:08,568.00,-37
1588554563,2020-05-04 03:09,566.00,-29
1588554623,2020-05-04 03:10,566.00,-35
1588554683,2020-05-04 03:11,570.00,-33
1588554743,2020-05-04 03:12,570.00,-38
1588554803,2020-05-04 03:13,569.00,-34
1588554864,2020-05-04 03:14,571.00,-37
1588554924,2020-05-04 03:15,573.00,-33
1588554984,2020-05-04 03:16,576.00,-33
1588555044,2020-05-04 03:17,575.00,-37
1588555104,2020-05-04 03:18,579.00,-35
1588555164,2020-05-04 03:19,577.00,-36
1588555224,2020-05-04 03:20,575.00,-34
1588555284,2020-05-04 03:21,577.00,-35
1588555344,2020-05-04 03:22,578.00,-35
1588555404,2020-05-04 03:23,581.00,-30
1588555464,2020-05-04 03:24,576.00,-38
1588555526,2020-05-04 03:25,573.00,-35
1588555586,2020-05-04 03:26,572.00,-33
1588555646,2020-05-04 03:27,572.00,-31
1588555706,2020-05-04 03:28,573.00,-32
1588555766,2020-05-04 03:29,575.00,-32
1588555827,2020-05-04 03:30,572.00,-37
1588555887,2020-05-04 03:31,574.00,-31
1588555947,2020-05-04 03:32,578.00,-32
1588556008,2020-05-04 03:33,577.00,-33
1588556068,2020-05-04 03:34,580.00,-35
1588556128,2020-05-04 03:35,577.00,-33
1588556188,2020-05-04 03:36,578.00,-32
1588556249,2020-05-04 03:37,576.00,-35
1588556309,2020-05-04 03:38,582.00,-30
1588556369,2020-05-04 03:39,579.00,-34
1588556429,2020-05-04 03:40,578.00,-31
1588556490,2020-05-04 03:41,578.00,-31
1588556550,2020-05-04 03:42,577.00,-32
1588556610,2020-05-04 03:43,581.00,-38
1588556671,2020-05-04 03:44,579.00,-29
1588556731,2020-05-04 03:45,580.00,-35
1588556791,2020-05-04 03:46,580.00,-30
1588556851,2020-05-04 03:47,579.00,-32
1588556912,2020-05-04 03:48,580.00,-35
1588556972,2020-05-04 03:49,577.00,-34
1588557032,2020-05-04 03:50,580.00,-32
1588557093,2020-05-04 03:51,581.00,-36
1588557153,2020-05-04 03:52,578.00,-36
1588557213,2020-05-04 03:53,580.00,-33
1588557273,2020-05-04 03:54,577.00,-33
1588557334,2020-05-04 03:55,579.00,-32
1588557394,2020-05-04 03:56,578.00,-32
1588557454,2020-05-04 03:57,575.00,-41
1588557515,2020-05-04 03:58,576.00,-36
1588557575,2020-05-04 03:59,578.00,-34
1588557635,2020-05-04 04:00,579.00,-29
1588557695,2020-05-04 04:01,579.00,-33
1588557756,2020-05-04 04:02,582.00,-32
1588557816,2020-05-04 04:03,581.00,-34
1588557876,2020-05-04 04:04,579.00,-33
1588557936,2020-05-04 04:05,578.00,-37
1588557997,2020-05-04 04:06,577.00,-33
1588558057,2020-05-04 04:07,576.00,-33
1588558281,2020-05-04 04:11,577.00,-33
1588558341,2020-05-04 04:12,579.00,-28
1588558401,2020-05-04 04:13,576.00,-30
1588558461,2020-05-04 04:14,576.00,-34
1588558521,2020-05-04 04:15,579.00,-31
1588558581,2020-05-04 04:16,578.00,-33
1588558641,2020-05-04 04:17,579.00,-35
1588558701,2020-05-04 04:18,579.00,-30
1588558762,2020-05-04 04:19,581.00,-33
1588558822,2020-05-04 04:20,581.00,-31
1588558882,2020-05-04 04:21,580.00,-31
1588558942,2020-05-04 04:22,586.00,-33
1588559002,2020-05-04 04:23,585.00,-32
1588559062,2020-05-04 04:24,585.00,-35
1588559122,2020-05-04 04:25,587.00,-37
1588559182,2020-05-04 04:26,587.00,-29
1588559242,2020-05-04 04:27,584.00,-30
1588559302,2020-05-04 04:28,584.00,-33
1588559362,2020-05-04 04:29,582.00,-38
1588559422,2020-05-04 04:30,582.00,-28
1588559482,2020-05-04 04:31,586.00,-32
1588559542,2020-05-04 04:32,585.00,-33
1588559603,2020-05-04 04:33,586.00,-29
1588559663,2020-05-04 04:34,586.00,-28
1588559723,2020-05-04 04:35,586.00,-31
1588559783,2020-05-04 04:36,588.00,-34
1588559843,2020-05-04 04:37,585.00,-31
1588559903,2020-05-04 04:38,585.00,-34
1588559963,2020-05-04 04:39,590.00,-30
1588560023,2020-05-04 04:40,583.00,-29
1588560083,2020-05-04 04:41,587.00,-31
1588560143,2020-05-04 04:42,586.00,-33
1588560203,2020-05-04 04:43,586.00,-30
1588560263,2020-05-04 04:44,588.00,-29
1588560323,2020-05-04 04:45,589.00,-34
1588560384,2020-05-04 04:46,588.00,-36
1588560444,2020-05-04 04:47,590.00,-31
1588560504,2020-05-04 04:48,586.00,-27
1588560564,2020-05-04 04:49,591.00,-30
1588560624,2020-05-04 04:50,587.00,-29
1588560684,2020-05-04 04:51,590.00,-34
1588560744,2020-05-04 04:52,587.00,-33
1588560804,2020-05-04 04:53,586.00,-34
1588560864,2020-05-04 04:54,587.00,-35
1588560924,2020-05-04 04:55,589.00,-31
1588560984,2020-05-04 04:56,587.00,-30
1588561044,2020-05-04 04:57,585.00,-28
1588561105,2020-05-04 04:58,586.00,-34
1588561165,2020-05-04 04:59,584.00,-29
1588561225,2020-05-04 05:00,589.00,-37
1588561285,2020-05-04 05:01,586.00,-37
1588561345,2020-05-04 05:02,586.00,-35
1588561405,2020-05-04 05:03,591.00,-31
1588561465,2020-05-04 05:04,587.00,-33
1588561525,2020-05-04 05:05,591.00,-34
1588561586,2020-05-04 05:06,592.00,-33
1588561646,2020-05-04 05:07,591.00,-32
1588561706,2020-05-04 05:08,592.00,-38
1588561767,2020-05-04 05:09,595.00,-27
1588561827,2020-05-04 05:10,590.00,-34
1588561887,2020-05-04 05:11,590.00,-36
1588561947,2020-05-04 05:12,593.00,-30
1588562008,2020-05-04 05:13,590.00,-36
1588562068,2020-05-04 05:14,592.00,-36
1588562128,2020-05-04 05:15,593.00,-33
1588562189,2020-05-04 05:16,596.00,-31
1588562249,2020-05-04 05:17,593.00,-35
1588562309,2020-05-04 05:18,592.00,-36
1588562369,2020-05-04 05:19,589.00,-40
1588562430,2020-05-04 05:20,589.00,-32
1588562490,2020-05-04 05:21,585.00,-33
1588562550,2020-05-04 05:22,587.00,-31
1588562610,2020-05-04 05:23,590.00,-37
1588562671,2020-05-04 05:24,587.00,-33
1588562731,2020-05-04 05:25,587.00,-31
1588562791,2020-05-04 05:26,586.00,-31
1588562852,2020-05-04 05:27,586.00,-30
1588562912,2020-05-04 05:28,585.00,-40
1588562972,2020-05-04 05:29,586.00,-39
1588563032,2020-05-04 05:30,588.00,-31
1588563093,2020-05-04 05:31,586.00,-34
1588563153,2020-05-04 05:32,589.00,-29
1588563213,2020-05-04 05:33,588.00,-34
1588563274,2020-05-04 05:34,587.00,-38
1588563334,2020-05-04 05:35,587.00,-36
1588563394,2020-05-04 05:36,588.00,-35
1588563454,2020-05-04 05:37,589.00,-34
1588563515,2020-05-04 05:38,590.00,-35
1588563575,2020-05-04 05:39,592.00,-36
1588563635,2020-05-04 05:40,596.00,-33
1588563696,2020-05-04 05:41,595.00,-32
1588563756,2020-05-04 05:42,591.00,-33
1588563816,2020-05-04 05:43,593.00,-33
1588563876,2020-05-04 05:44,590.00,-32
1588563937,2020-05-04 05:45,589.00,-33
1588563997,2020-05-04 05:46,590.00,-33
1588564057,2020-05-04 05:47,594.00,-32
1588564118,2020-05-04 05:48,595.00,-34
1588564178,2020-05-04 05:49,595.00,-35
1588564238,2020-05-04 05:50,593.00,-36
1588564298,2020-05-04 05:51,597.00,-28
1588564359,2020-05-04 05:52,596.00,-33
1588564419,2020-05-04 05:53,600.00,-37
1588564479,2020-05-04 05:54,599.00,-32
1588564539,2020-05-04 05:55,597.00,-33
1588564600,2020-05-04 05:56,593.00,-36
1588564660,2020-05-04 05:57,598.00,-37
1588564720,2020-05-04 05:58,596.00,-29
1588564781,2020-05-04 05:59,597.00,-33
1588564841,2020-05-04 06:00,593.00,-36
1588564901,2020-05-04 06:01,595.00,-35
1588564961,2020-05-04 06:02,595.00,-32
1588565022,2020-05-04 06:03,595.00,-34
1588565082,2020-05-04 06:04,595.00,-36
1588565142,2020-05-04 06:05,595.00,-32
1588565203,2020-05-04 06:06,594.00,-30
1588565263,2020-05-04 06:07,594.00,-33
1588565323,2020-05-04 06:08,593.00,-36
1588565383,2020-05-04 06:09,592.00,-33
1588565444,2020-05-04 06:10,595.00,-40
1588565504,2020-05-04 06:11,593.00,-35
1588565564,2020-05-04 06:12,594.00,-34
1588565625,2020-05-04 06:13,596.00,-37
1588565685,2020-05-04 06:14,596.00,-35
1588565745,2020-05-04 06:15,597.00,-30
1588565805,2020-05-04 06:16,595.00,-40
1588565866,2020-05-04 06:17,601.00,-37
1588565926,2020-05-04 06:18,596.00,-32
1588565986,2020-05-04 06:19,597.00,-34
1588566046,2020-05-04 06:20,598.00,-35
1588566107,2020-05-04 06:21,593.00,-35
1588566167,2020-05-04 06:22,596.00,-33
1588566227,2020-05-04 06:23,596.00,-42
1588566288,2020-05-04 06:24,596.00,-34
1588566348,2020-05-04 06:25,595.00,-31
1588566408,2020-05-04 06:26,594.00,-32
1588566468,2020-05-04 06:27,597.00,-34
1588566529,2020-05-04 06:28,594.00,-32
1588566589,2020-05-04 06:29,594.00,-31
1588566649,2020-05-04 06:30,595.00,-34
1588566709,2020-05-04 06:31,594.00,-36
1588566770,2020-05-04 06:32,595.00,-38
1588566830,2020-05-04 06:33,596.00,-35
1588566890,2020-05-04 06:34,592.00,-31
1588566951,2020-05-04 06:35,597.00,-34
1588567011,2020-05-04 06:36,594.00,-37
1588567071,2020-05-04 06:37,597.00,-33
1588567131,2020-05-04 06:38,597.00,-36
1588567192,2020-05-04 06:39,593.00,-34
1588567252,2020-05-04 06:40,593.00,-32
1588567312,2020-05-04 06:41,593.00,-33
1588567373,2020-05-04 06:42,593.00,-34
1588567433,2020-05-04 06:43,593.00,-34
1588567493,2020-05-04 06:44,596.00,-33
1588567553,2020-05-04 06:45,597.00,-35
1588567614,2020-05-04 06:46,596.00,-33
1588567674,2020-05-04 06:47,594.00,-36
1588567734,2020-05-04 06:48,594.00,-33
1588567794,2020-05-04 06:49,595.00,-30
1588567855,2020-05-04 06:50,596.00,-38
1588567915,2020-05-04 06:51,595.00,-32
1588567975,2020-05-04 06:52,593.00,-35
1588568036,2020-05-04 06:53,596.00,-33
1588568096,2020-05-04 06:54,593.00,-36
1588568156,2020-05-04 06:55,591.00,-35
1588568216,2020-05-04 06:56,590.00,-36
1588568277,2020-05-04 06:57,595.00,-30
1588568337,2020-05-04 06:58,594.00,-32
1588568397,2020-05-04 06:59,592.00,-30
1588568458,2020-05-04 07:00,598.00,-36
1588568518,2020-05-04 07:01,594.00,-34
1588568578,2020-05-04 07:02,594.00,-34
1588568638,2020-05-04 07:03,592.00,-37
1588568699,2020-05-04 07:04,591.00,-36
1588568759,2020-05-04 07:05,591.00,-33
1588568819,2020-05-04 07:06,590.00,-35
1588568879,2020-05-04 07:07,590.00,-34
1588568940,2020-05-04 07:09,587.00,-34
1588569000,2020-05-04 07:10,592.00,-32
1588569060,2020-05-04 07:11,593.00,-32
1588569121,2020-05-04 07:12,590.00,-36
1588569181,2020-05-04 07:13,592.00,-32
1588569241,2020-05-04 07:14,589.00,-32
1588569301,2020-05-04 07:15,592.00,-30
1588569362,2020-05-04 07:16,590.00,-30
1588569422,2020-05-04 07:17,591.00,-33
1588569482,2020-05-04 07:18,595.00,-34
1588569543,2020-05-04 07:19,593.00,-35
1588569603,2020-05-04 07:20,594.00,-31
1588569663,2020-05-04 07:21,597.00,-33
1588569723,2020-05-04 07:22,596.00,-32
1588569784,2020-05-04 07:23,596.00,-33
1588569844,2020-05-04 07:24,594.00,-31
1588569904,2020-05-04 07:25,593.00,-32
1588569965,2020-05-04 07:26,592.00,-29
1588570025,2020-05-04 07:27,593.00,-38
1588570085,2020-05-04 07:28,596.00,-37
1588570145,2020-05-04 07:29,592.00,-33
1588570206,2020-05-04 07:30,589.00,-32
1588570266,2020-05-04 07:31,590.00,-30
1588570326,2020-05-04 07:32,587.00,-33
1588570386,2020-05-04 07:33,591.00,-36
1588570447,2020-05-04 07:34,592.00,-34
1588570507,2020-05-04 07:35,590.00,-34
1588570567,2020-05-04 07:36,589.00,-34
1588570628,2020-05-04 07:37,589.00,-33
1588570688,2020-05-04 07:38,587.00,-32
1588570748,2020-05-04 07:39,590.00,-36
1588570808,2020-05-04 07:40,587.00,-30
1588570869,2020-05-04 07:41,586.00,-33
1588570929,2020-05-04 07:42,587.00,-36
1588570989,2020-05-04 07:43,588.00,-35
1588571049,2020-05-04 07:44,583.00,-38
1588571110,2020-05-04 07:45,585.00,-30
1588571170,2020-05-04 07:46,586.00,-30
1588571230,2020-05-04 07:47,586.00,-32
1588571291,2020-05-04 07:48,588.00,-34
1588571351,2020-05-04 07:49,583.00,-32
1588571411,2020-05-04 07:50,585.00,-37
1588571471,2020-05-04 07:51,582.00,-35
1588571532,2020-05-04 07:52,583.00,-37
1588571592,2020-05-04 07:53,580.00,-33
1588571652,2020-05-04 07:54,576.00,-38
1588571713,2020-05-04 07:55,572.00,-33
1588571773,2020-05-04 07:56,578.00,-33
1588571833,2020-05-04 07:57,574.00,-32
1588571893,2020-05-04 07:58,574.00,-34
1588571954,2020-05-04 07:59,574.00,-32
1588572014,2020-05-04 08:00,574.00,-37
1588572074,2020-05-04 08:01,571.00,-38
1588572134,2020-05-04 08:02,571.00,-30
1588572195,2020-05-04 08:03,570.00,-38
1588572255,2020-05-04 08:04,569.00,-36
1588572315,2020-05-04 08:05,573.00,-31
1588572376,2020-05-04 08:06,573.00,-36
1588572436,2020-05-04 08:07,572.00,-32
1588572496,2020-05-04 08:08,571.00,-29
1588572556,2020-05-04 08:09,573.00,-33
1588572617,2020-05-04 08:10,572.00,-37
1588572677,2020-05-04 08:11,570.00,-31
1588572737,2020-05-04 08:12,570.00,-32
1588572797,2020-05-04 08:13,571.00,-34
1588572858,2020-05-04 08:14,571.00,-32
1588572918,2020-05-04 08:15,570.00,-33
1588572978,2020-05-04 08:16,571.00,-33
1588573039,2020-05-04 08:17,568.00,-31
1588573099,2020-05-04 08:18,570.00,-32
1588573159,2020-05-04 08:19,572.00,-34
1588573219,2020-05-04 08:20,566.00,-34
1588573280,2020-05-04 08:21,567.00,-29
1588573340,2020-05-04 08:22,567.00,-29
1588573400,2020-05-04 08:23,567.00,-36
1588573460,2020-05-04 08:24,567.00,-37
1588573520,2020-05-04 08:25,569.00,-30
1588573580,2020-05-04 08:26,568.00,-34
1588573640,2020-05-04 08:27,568.00,-35
1588573700,2020-05-04 08:28,565.00,-38
1588573761,2020-05-04 08:29,566.00,-39
1588573821,2020-05-04 08:30,569.00,-31
1588573881,2020-05-04 08:31,565.00,-33
1588573941,2020-05-04 08:32,565.00,-32
1588574001,2020-05-04 08:33,561.00,-36
1588574061,2020-05-04 08:34,559.00,-35
1588574121,2020-05-04 08:35,558.00,-37
1588574181,2020-05-04 08:36,560.00,-33
1588574241,2020-05-04 08:37,560.00,-30
1588574302,2020-05-04 08:38,560.00,-31
1588574362,2020-05-04 08:39,558.00,-31
1588574422,2020-05-04 08:40,559.00,-35
1588574482,2020-05-04 08:41,558.00,-34
1588574542,2020-05-04 08:42,556.00,-36
1588574602,2020-05-04 08:43,554.00,-39
1588574662,2020-05-04 08:44,556.00,-35
1588574722,2020-05-04 08:45,554.00,-35
1588574782,2020-05-04 08:46,560.00,-35
1588574843,2020-05-04 08:47,558.00,-29
1588574903,2020-05-04 08:48,559.00,-35
1588574963,2020-05-04 08:49,560.00,-36
1588575023,2020-05-04 08:50,558.00,-33
1588575083,2020-05-04 08:51,555.00,-33
1588575143,2020-05-04 08:52,559.00,-37
1588575203,2020-05-04 08:53,553.00,-38
1588575263,2020-05-04 08:54,557.00,-32
1588575324,2020-05-04 08:55,557.00,-34
1588575384,2020-05-04 08:56,556.00,-32
1588575444,2020-05-04 08:57,556.00,-30
1588575504,2020-05-04 08:58,554.00,-30
1588575564,2020-05-04 08:59,555.00,-34
1588575624,2020-05-04 09:00,551.00,-34
1588575684,2020-05-04 09:01,548.00,-34
1588575745,2020-05-04 09:02,553.00,-40
1588575805,2020-05-04 09:03,551.00,-34
1588575928,2020-05-04 09:05,542.00,-31
1588575988,2020-05-04 09:06,542.00,-30
1588576048,2020-05-04 09:07,545.00,-33
1588576109,2020-05-04 09:08,542.00,-30
1588576169,2020-05-04 09:09,545.00,-31
1588576229,2020-05-04 09:10,549.00,-33
1588576290,2020-05-04 09:11,549.00,-34
1588576350,2020-05-04 09:12,551.00,-35
1588576410,2020-05-04 09:13,549.00,-35
1588576470,2020-05-04 09:14,548.00,-34
1588576531,2020-05-04 09:15,548.00,-36
1588576591,2020-05-04 09:16,547.00,-29
1588576651,2020-05-04 09:17,546.00,-32
1588576712,2020-05-04 09:18,543.00,-36
1588576772,2020-05-04 09:19,542.00,-33
1588576832,2020-05-04 09:20,544.00,-35
1588576892,2020-05-04 09:21,542.00,-39
1588576953,2020-05-04 09:22,543.00,-35
1588577013,2020-05-04 09:23,545.00,-32
1588577073,2020-05-04 09:24,543.00,-30
1588577134,2020-05-04 09:25,544.00,-33
1588577194,2020-05-04 09:26,543.00,-32
1588577254,2020-05-04 09:27,550.00,-37
1588577314,2020-05-04 09:28,551.00,-33
1588577375,2020-05-04 09:29,544.00,-37
1588577435,2020-05-04 09:30,543.00,-36
1588577495,2020-05-04 09:31,542.00,-37
1588577555,2020-05-04 09:32,542.00,-35
1588577616,2020-05-04 09:33,541.00,-35
1588577676,2020-05-04 09:34,539.00,-34
1588577736,2020-05-04 09:35,543.00,-37
1588577797,2020-05-04 09:36,538.00,-34
1588577857,2020-05-04 09:37,538.00,-35
1588577917,2020-05-04 09:38,540.00,-34
1588577977,2020-05-04 09:39,538.00,-32
1588578038,2020-05-04 09:40,539.00,-31
1588578098,2020-05-04 09:41,539.00,-34
1588578158,2020-05-04 09:42,536.00,-36
1588578219,2020-05-04 09:43,537.00,-35
1588578279,2020-05-04 09:44,542.00,-39
1588578339,2020-05-04 09:45,543.00,-37
1588578399,2020-05-04 09:46,542.00,-34
1588578460,2020-05-04 09:47,544.00,-37
1588578520,2020-05-04 09:48,543.00,-32
1588578580,2020-05-04 09:49,544.00,-33
1588578641,2020-05-04 09:50,543.00,-34
1588578701,2020-05-04 09:51,544.00,-38
1588578761,2020-05-04 09:52,541.00,-35
1588578821,2020-05-04 09:53,542.00,-34
1588578882,2020-05-04 09:54,542.00,-33
1588578942,2020-05-04 09:55,540.00,-34
1588579002,2020-05-04 09:56,540.00,-39
1588579063,2020-05-04 09:57,543.00,-33
1588579123,2020-05-04 09:58,540.00,-34
1588579183,2020-05-04 09:59,540.00,-35
1588579243,2020-05-04 10:00,538.00,-30
1588579304,2020-05-04 10:01,542.00,-33
1588579364,2020-05-04 10:02,538.00,-37
1588579424,2020-05-04 10:03,540.00,-33
1588579484,2020-05-04 10:04,543.00,-37
1588579545,2020-05-04 10:05,542.00,-30
1588579605,2020-05-04 10:06,541.00,-31
1588579665,2020-05-04 10:07,540.00,-31
1588579726,2020-05-04 10:08,539.00,-33
1588579786,2020-05-04 10:09,539.00,-36
1588579846,2020-05-04 10:10,542.00,-38
1588579907,2020-05-04 10:11,543.00,-33
1588579967,2020-05-04 10:12,541.00,-36
1588580027,2020-05-04 10:13,541.00,-37
1588580087,2020-05-04 10:14,543.00,-35
1588580148,2020-05-04 10:15,539.00,-30
1588580208,2020-05-04 10:16,538.00,-33
1588580268,2020-05-04 10:17,538.00,-39
1588580490,2020-05-04 10:21,540.00,-32
1588580551,2020-05-04 10:22,542.00,-34
1588580611,2020-05-04 10:23,543.00,-33